METEOR 2-6 DEB, 31406

Orbit data source: Space-Track

METEOR 2-6 DEB, 31406 is space debris in LEO originally from a launch on Tue, 09 Sep 1980 UTC launched from the Plesetsk Missile And Space Complex (PKMTR). Debris objects in space refer to the collection of defunct objects orbiting the Earth. Examples of debris include non-operational satellites, rocket bodies, and fragments generated from explosions, collisions, or faulty payload assembly.

Loading next visibility...
Identifier
31406, 1980-073H
Orbit
LEO
Country
Flag of CISCIS
Related business
Manufacturer
Unknown
Mission
Spacecraft
Bus & Motor
Unknown
Mass
Unknown
Launch date (UTC)
1980-09-09 (46 years ago)
Launch vehicle
Unknown
Launch site
Plesetsk Missile And Space Complex (PKMTR)
Object type
Payload
Rocket body
Debris
Shape & HBR
Unknown shape, 0.050 m
Radar Cross Section
Small (<0.1 m²)

Expand to show TLE details & history
Last TLE update: 13 hours ago

TLE from 13 hours ago
0 METEOR 2-6 DEB
1 31406U 80073H   26267.17822673  .00004409  00000-0  11297-2 0  9990
2 31406  81.2154 216.2192 0029176 210.0592 149.8927 14.49976113122071
Epoch: 2026-09-24T04:16Z
TLE epoch observation values (Epoch: 2026-09-24T04:16:38.789Z)
Latitude
-0.00009°
Longitude
149.03884°
Altitude
746.628 km
Speed
7.472 km/s
True Right ascension
14h 24m 52s
True Declination
0° 00' 00"
Sunlit
Object was in daylight at epoch
Visualization orbit readout
Latitude
Unknown
Longitude
Unknown
Altitude
Unknown
Speed
Unknown
Apparent Right ascension
Unknown
Apparent Declination
Unknown
Sunlit
N/A
Visualization observer readout
Local Sidereal Time
10:06:48
Azimuth
Unknown
Elevation
Unknown
Doppler factor
Unknown
Orbital elements
Apogee altitude
743.567 km
Perigee altitude
702.131 km
Semi-major axis
7,100.986 km
Eccentricity
0.00292
Inclination
81.2154°
RAAN
216.2192°
Arg. of periapsis
210.0592°
True anomaly
150.05988°
Mean anomaly
149.8927°
Eccentric anomaly
149.97634°
Mean motion
3.62715 °/min
Orbital period
99.25 mins
BSTAR
0.0011297
Loading maneuver chart data...
Computing Atmospheric mass density...
Loading historical data...
Loading historical data...
Loading historical data...
Loading historical data...
Loading historical data...
Loading historical data...
Loading historical data...

Documentation

Showing up to 5 results
|